Regional Weather Roundup
Issued by NWS

Home | Current Version | Previous Version | Graphics & Text | Print | Product List | Glossary On
Versions: 1 2 3 4 5 6 7 8 9 10 11 12 13 14 15 16 17 18 19 20 21 22 23 24 25 26 27 28 29 30 31 32 33 34 35 36 37 38 39 40 41 42 43 44 45 46 47 48 49 50
000
ASUS43 KMKX 221500
RWRWI

WISCONSIN REGIONAL WEATHER ROUNDUP
NATIONAL WEATHER SERVICE MILWAUKEE/SULLIVAN WI
1000 AM CDT SUN OCT 22 2017

NOTE: "FAIR" INDICATES FEW OR NO CLOUDS BELOW 12,000 FEET WITH NO
SIGNIFICANT WEATHER AND/OR OBSTRUCTIONS TO VISIBILITY.

WIZ001-002-006>008-014>016-023>028-221600-
NORTHWEST WISCONSIN

CITY           SKY/WX    TMP DP  RH WIND       PRES   REMARKS
SUPERIOR ARPT  CLOUDY    48  42  79 SW12      29.89R
ASHLAND        CLOUDY    50  41  71 SW12      29.90R
HAYWARD        CLOUDY    49  40  71 VRB6      29.92S
SIREN          CLOUDY    48  40  75 W8        29.93S
CUMBERLAND     CLOUDY    46  37  71 W12       29.95R
RICE LAKE      CLOUDY    49  42  75 W5        29.96S
CHETEK         CLOUDY    49  42  75 W3        29.95R
LADYSMITH      CLOUDY    48  44  84 SW5       29.96R
EAU CLAIRE     NOT AVBL
MENOMONIE      CLOUDY    51  42  72 W6        29.97R
NEW RICHMOND   CLOUDY    48  39  71 W8        29.97R
OSCEOLA        CLOUDY    49  42  75 W6        29.98F
$$

WIZ003>005-009-010-017-018-221600-
NORTH CENTRAL WISCONSIN

CITY           SKY/WX    TMP DP  RH WIND       PRES   REMARKS
MANITOWISH WTR DRIZZLE   47  47 100 SW5       29.90R
ARBOR VITAE    LGT RAIN  49  47  93 W5        29.90F
WOODRUFF       LGT RAIN  49  47  93 W5        29.90F
RHINELANDER    LGT RAIN  49  48  97 W9        29.92F
EAGLE RIVER    NOT AVBL
LAND O LAKES   LGT RAIN  49  46  89 W5        29.91S
PHILLIPS       CLOUDY    47  46  96 SW7       29.92R
TOMAHAWK       RAIN      47  45  90 CALM      29.93S
MEDFORD        CLOUDY    47  45  91 W7        29.93F
MERRILL        CLOUDY    49  47  91 W8        29.94R
$$

WIZ029-030-035-036-043>047-221600-
CENTRAL WISCONSIN

CITY           SKY/WX    TMP DP  RH WIND       PRES   REMARKS
WAUSAU         LGT RAIN  50  46  86 NW9       29.92R
MOSINEE        DRIZZLE   48  48 100 W9        29.95R
MARSHFIELD     LGT RAIN  49  45  86 NW9       29.94R
STEVENS POINT  LGT RAIN  49  48  97 NW5       29.95R
WAUPACA        DRIZZLE   54  50  86 W8        29.93R
WAUTOMA        CLOUDY   N/A N/A N/A NW7       29.95R
WISC RAPIDS    LGT RAIN  51  48  89 NW8       29.96R
CAMP DOUGLAS   LGT RAIN  50  50 100 W5        29.97R
$$

WIZ011>013-019>022-031-037>040-048>050-221600-
NORTHEAST WISCONSIN

CITY           SKY/WX    TMP DP  RH WIND       PRES   REMARKS
ANTIGO         DRIZZLE   49  47  93 NW9       29.92R
SHAWANO        CLOUDY    56  53  90 W5        29.90S
OCONTO         CLOUDY    60  58  94 S5        29.86F
STURGEON BAY   LGT RAIN  58  56  93 S12       29.89F
GREEN BAY      LGT RAIN  57  57 100 W14       29.90R
MANITOWOC      CLOUDY    60  55  83 S12       29.90F
APPLETON       CLOUDY    54  54 100 W14       29.89R
CLINTONVILLE   RAIN      54  48  82 NW12G21   29.92R
OSHKOSH        CLOUDY    54  51  90 NW10      29.91S
$$

WIZ032>034-041-042-053>061-221600-
SOUTHWEST WISCONSIN

CITY           SKY/WX    TMP DP  RH WIND       PRES   REMARKS
LA CROSSE      CLOUDY    53  47  79 W3        29.99R
SPARTA         CLOUDY    49  47  93 SW3       29.98R
VIROQUA        CLOUDY    49  48  97 NW3       29.98R
BOSCOBEL       CLOUDY    54  48  80 NW3       29.99R
PRAIRIE DU CHI CLOUDY    52  46  79 NW5       29.99R
PLATTEVILLE    CLOUDY    52  52  98 NW8G16    29.98R
$$

WIZ056-057-062-063-064-067-068-221600-
SOUTH CENTRAL WISCONSIN

CITY           SKY/WX    TMP DP  RH WIND       PRES   REMARKS
REEDSBURG      RAIN      51  51 100 W6        29.96R
BARABOO/DELLS  DRIZZLE   51  49  92 NW3       29.95R
LONE ROCK      NOT AVBL
MINERAL POINT  LGT RAIN  52  52 100 NW8       29.97R
MADISON        DRIZZLE   53  52  96 NW12      29.94R FOG
MIDDLETON      CLOUDY    54  54 100 NW10      29.94R
WATERTOWN      CLOUDY    61  61 100 S7        29.90S
MONROE         DRIZZLE   52  50  93 NW12G20   29.93R
JANESVILLE     LGT RAIN  63  63 100 S9        29.90S
$$

WIZ051-052-058>065-066-070>072-221600-
SOUTHEAST WISCONSIN

CITY           SKY/WX    TMP DP  RH WIND       PRES   REMARKS
MILWAUKEE      CLOUDY    67  60  78 S13       29.93R
WAUKESHA       CLOUDY    64  57  77 S9        29.92S
MILWAUKEE/TIMM CLOUDY    66  55  68 S13       29.91F
RACINE         CLOUDY    64  57  78 S10       29.94S
BURLINGTON     RAIN      66  60  82 S12G29    29.93R
KENOSHA        CLOUDY    67  58  72 S12       29.93S
FOND DU LAC    LGT RAIN  55  51  86 NW15      29.91R
SHEBOYGAN      CLOUDY    63  59  87 S7        29.90F
WEST BEND      CLOUDY    64  61  88 SW7       29.90F
JUNEAU         HVY RAIN  57  56  95 NW8G18    29.92R
$$

LSZ147-162-221600-
LAKE SUPERIOR

STATION/POSITION TIME  TEMP    WIND        PRES    WAVE
                       AIR SEA DIR/SP/G            HT/PER
                 (UTC) (F)     (DEG/KT/KT) (MB)    (FT/S)
W MID LAKE BUOY  1350   53 52              1009.7R   5/ 5
DEVILS ISLAND    1400   52     230/ 20/ 24 1010.9R
PORT WING        1240          210/  8/ 23 1010.8
SAXON HARBOR     1440   52     220/  8/ 12 1011.5S
$$

LMZ867-665-643>646-221600-
LAKE MICHIGAN

STATION/POSITION TIME  TEMP    WIND        PRES    WAVE
                       AIR SEA DIR/SP/G            HT/PER
                 (UTC) (F)     (DEG/KT/KT) (MB)    (FT/S)
S GREEN BAY BUOY 1430   58 58  170/ 14/ 17 1011.0F
N MID LAKE BUOY  1350   62 58  180/ 19/ 21 1012.8R   6/ 7
NORTHPORT PIER   1440   59     180/  6/ 16 1012.2S
KEWAUNEE LAKESHO 1430   53     170/ 12/ 13 1011.8F
SHEBOYGAN LAKESH 1400   55     180/ 18/ 19 1012.5F
PORT WASHINGTON  1430   59     190/  7/ 11 1013.9S
ATWATER BUOY     1309   56 52  170/ 12/ 14 1013.5R
MILWAUKEE LAKESH 1450   56     150/ 16/ 18   N/A
S MID LAKE BUOY  1350   63 61  150/ 21/ 23 1014.3R   4/ 5
KENOSHA   LAKESH 1400   56     160/ 11/ 12 1013.9
$$

TC  - TEMPERATURE IN CELSIUS
VSB - VISIBILITY IN STATUTE MILES
WCI - WIND CHILL INDEX
HX  - HEAT INDEX




USA.gov is the U.S. government's official web portal to all federal, state and local government web resources and services.